Flag for West Bank Weather past 2 weeks in Tulkarm, West Bank

Now
55 °F

Clear.


Feels Like: 55 °F
Forecast: 50 / 67 °F
Wind: 5 mph from Southeast

Location: Dov Airport

Current Time: Jan 30, 2015 at 10:38:40 PM

Latest Report: Jan 30, 2015 at 9:50 PM


Visibility: 10 mi

Pressure: 30.09 "Hg

Humidity: 51%

Dew point: 37 °F

Location of TulkarmLocation

Historic Weather in Tulkarm — Graph

°F

Tulkarm temperature yesterday

Maximum temperature yesterday: 66 °F (at 1:50 PM)
Minimum temperature yesterday: 55 °F (at 5:50 AM)
Average temperature yesterday: 61 °F

Past Weeks' High & Low Weather Summary

 TemperatureHumidityPressure
High72 °F (Jan 21, 3:50 PM)94% (Jan 25, 7:50 PM)30.30 "Hg (Jan 25, 7:50 PM)
Low48 °F (Jan 18, 5:50 AM)31% (Jan 24, 9:50 AM)29.86 "Hg (Jan 27, 10:50 PM)
Average60 °F65%30.06 "Hg
* Reported Jan 15 8:50 PM — Jan 30 8:50 PM, Tulkarm, Weather by CustomWeather, © 2014

Note: Actual official high and low records may vary slightly from our data, if they occured in-between our weather recording intervals... More about our weather records

Advertising

Tulkarm weather history for previous 24 hours

 ConditionsComfort  
Time TempWeatherWind HumidityBarometerVisibility
8:50 PM
Jan 30
57 °FClear.6 mph48%30.07 "Hg10 mi
7:50 PM59 °FClear.5 mph45%30.07 "Hg10 mi
6:50 PM61 °FClear.8 mph45%30.07 "Hg10 mi
5:50 PM63 °FClear.12 mph39%30.04 "Hg10 mi
4:50 PM63 °FSunny.12 mph39%30.04 "Hg10 mi
3:50 PM63 °FSunny.14 mph42%30.01 "Hg10 mi
2:50 PM64 °FSunny.16 mph40%30.01 "Hg10 mi
1:50 PM64 °FPassing clouds.18 mph43%30.01 "HgN/A
12:50 PM64 °FPassing clouds.18 mph46%30.01 "HgN/A
11:50 AM64 °FPassing clouds.21 mph43%30.01 "HgN/A
10:50 AM63 °FPassing clouds.14 mph49%30.04 "HgN/A
9:50 AM61 °FScattered clouds.9 mph48%30.01 "HgN/A
8:50 AM59 °FScattered clouds.8 mph51%30.01 "HgN/A
7:50 AM55 °FScattered clouds.10 mph55%29.98 "HgN/A
6:50 AM54 °FCool.9 mph58%29.95 "HgN/A
5:50 AM54 °FPassing clouds.8 mph58%29.92 "HgN/A
10:50 PM
Jan 29
55 °FClear.6 mph72%29.92 "Hg10 mi
Weather by CustomWeather, © 2014

See weather overviewHow to use our weather pages